www.pogodaiklimat.ru

Погода и климат >> Архив погоды >> Китай >> Тайвань >> Ланьюй


ПОГОДА в Ланьюе

  • Прогноз погоды в Ланьюе
  • Монитор погоды в Ланьюе

АРХИВ ПОГОДЫ в Ланьюе

Время (UTC), дата Ветер
(напр.,м/с)
 
Видим.   Явления Облачность Т
(С)
Тd
(С)
f
(%)
Тe
(С)
Тes
(С)
Комфортность P
(гПа)
Po
(гПа)
Тmin
(С)
Tmax
(С)
R
(мм)
R24
(мм)
S
(см)
06 17.02 С 5 15 км {дождь, туман} 10/10 300 м
[St]
+20.0 +20.0 100 +23 +23 комфорт 1017.3 979.5 16
09 17.02 С 6 10 км в посл. час дождь 10/10 300 м
[Frnb]
+19.6 +19.6 100 +22 +22 комфорт 1016.9 979.0 17
12 17.02 С 6 10 км слаб. дождь 10/10 300 м
[Frnb]
+19.8 +19.8 100 +23 +23 комфорт 1018.5 980.6 17
18 17.02 С 5 н/о н/о +20.1 +20.1 100 +24 +24 комфорт 1017.5 979.7
21 17.02 СВ 4 15 км {дождь} 6/6 300 м
[Sc diur, vesp]
+19.7 +19.7 100 +23 +23 комфорт 1016.7 978.8 18
00 18.02 СВ 2 30 км осадки на расстоянии 3/3 600 м
[Sc diur, vesp]
+20.9 +19.4 91 +26 +29 душно 1018.7 980.9 18
03 18.02 В 4 30 км 8/8 300 м
[Sc diur, vesp]
+23.5 +19.8 80 +29 +31 душно 1018.1 980.7
06 18.02 Ю 6 20 км осадки на расстоянии 9/9 300 м
[Sc diur, vesp]
+22.7 +21.1 91 +30 +30 очень
душно
1015.7 978.3
09 18.02 Ю 9 20 км {дождь} 9/9 600 м
[Sc diur, vesp]
+22.7 +22.0 96 +31 +31 очень
душно
1015.8 978.4 2
12 18.02 Ю 11 20 км 9/9 600 м
[Sc diur, vesp]
+22.9 +22.3 96 +31 +31 очень
душно
1017.2 979.7 2
18 18.02 ЮЗ 11 н/о н/о +22.7 +22.7 100 +31 +31 очень
душно
1017.2 979.7
21 18.02 ЮЗ 8 20 км 4/4 300 м
[Sc diur, vesp]
+22.1 +22.1 100 +29 +29 очень
душно
1017.2 979.6
00 19.02 З 8 20 км 3/3 600 м
[Cu hum]
+22.8 +21.5 92 +30 +31 очень
душно
1018.9 981.4
06 19.02 ЮЗ 8 20 км 3/3 600 м
[Cu hum]
+25.3 +21.4 79 +32 +34 очень
душно
1017.8 980.6
09 19.02 ЮЗ 9 20 км 3/3 600 м
[Cu hum]
+23.9 +21.6 87 +31 +31 очень
душно
1018.0 980.6
12 19.02 ЮЗ 11 20 км 3/3 600 м
[Cu hum]
+22.7 +22.0 96 +31 +31 очень
душно
1019.7 982.1
18 19.02 ЮЗ 5 н/о н/о +21.9 +21.9 100 +29 +29 очень
душно
1020.2 982.5
21 19.02 З 5 20 км 3/3 600 м
[Cu hum]
+21.7 +21.7 100 +28 +28 душно 1019.8 982.1
00 20.02 ЮЗ 3 20 км осадки на расстоянии 8/8 600 м
[Sc diur, vesp]
+22.8 +21.9 95 +31 +31 очень
душно
1022.0 984.3
03 20.02 Ю 6 30 км 4/4 600 м
[Cu hum]
+26.0 +19.9 69 +32 +35 очень
душно
1022.3 985.0
06 20.02 Ю 6 30 км 5/3 600 м
[Cu hum Ac trans]
+24.5 +20.0 76 +30 +33 очень
душно
1020.1 982.7
09 20.02 Ю 6 30 км 1/1 600 м
[Cu hum]
+23.4 +19.9 81 +30 +31 очень
душно
1019.3 981.8
12 20.02 Ю 4 30 км 8/8 600 м
[Cu hum]
+22.3 +21.6 96 +29 +29 очень
душно
1020.8 983.1
18 20.02 ЮЗ 3 н/о н/о +21.8 +21.0 95 +28 +28 душно 1019.9 982.2
21 20.02 Ю 3 30 км 1/1 600 м
[Sc diur, vesp]
+21.7 +20.5 93 +27 +27 душно 1019.5 981.8
00 21.02 Ю 3 30 км 3/3 600 м
[Cu hum]
+23.5 +18.8 75 +28 +30 душно 1020.7 983.2
03 21.02 Ю 4 30 км 3/3 600 м
[Cu med, cong]
+25.8 +17.8 61 +30 +37 душно 1019.8 982.6
06 21.02 Ю 6 30 км 3/3 600 м
[Cu med, cong]
+25.6 +17.6 61 +30 +33 душно 1017.1 980.0
09 21.02 ЮЗ 6 30 км 3/3 600 м
[Cu hum]
+23.7 +18.3 72 +28 +28 душно 1017.2 979.8
18 21.02 ЮЗ 7 н/о н/о +21.7 +20.5 93 +27 +27 душно 1016.3 978.7
21 21.02 ЮЗ 9 30 км 3/3 300 м
[Cu med, cong]
+21.9 +20.7 93 +28 +28 душно 1015.5 978.0
00 22.02 З 11 30 км 3/3 600 м
[Cu hum]
+22.5 +19.9 85 +29 +29 очень
душно
1016.6 979.1
03 22.02 ЮЗ 11 30 км 6/6 600 м
[Cu hum]
+24.0 +20.0 78 +29 +30 душно 1016.3 979.0
06 22.02 ЮЗ 6 30 км 5/5 600 м
[Cu hum]
+24.6 +19.2 72 +30 +32 очень
душно
1014.7 977.5
09 22.02 З 8 20 км 1/1 600 м
[Cu hum]
+23.0 +20.0 83 +30 +30 очень
душно
1014.8 977.4
12 22.02 СВ 5 20 км 3/3 600 м
[Cu hum]
+21.6 +21.1 97 +28 +28 очень
душно
1016.4 978.8
18 22.02 СВ 15 н/о н/о +19.8 +19.8 100 +22 +22 комфорт 1016.6 978.8
21 22.02 С 9 10 км 10/10 300 м
[Sc]
+19.2 +18.9 98 +20 +20 1016.5 978.6
00 23.02 СВ 13 10 км 10/10 300 м
[St]
+18.6 +18.6 100 +18 +18 1017.5 979.5
03 23.02 СВ 10 10 км {дождь} 10/10 300 м
[St]
+18.5 +18.5 100 +18 +18 1017.4 979.4 2
06 23.02 СВ 6 10 км {дождь} 10/10 300 м
[St]
+18.8 +18.3 97 +20 +20 1015.1 977.2 2
09 23.02 С 6 3000 м слаб. дождь 10/10 50 м
[Frnb]
+18.7 +18.7 100 +19 +19 1015.3 977.4 4
12 23.02 СВ 14 3000 м в посл. час дождь 10/10 50 м
[Frnb]
+18.1 +18.1 100 +17 +17 1016.9 978.8 9
18 23.02 СВ 14 н/о н/о +18.2 +18.2 100 +17 +17 1016.0 978.0
21 23.02 СВ 10 10 км в посл. час дождь 10/10 300 м
[Frnb]
+18.4 +18.4 100 +18 +18 1015.4 977.4 5
00 24.02 С 5 20 км в посл. час дождь 10/10 300 м
[Sc]
+18.9 +18.9 100 +20 +20 1016.9 978.9 21

 

Местоположение метеостанции Ланьюй (Тайвань, Китай): широта 22.03 долгота 121.55 высота над уровнем моря 325 м.

В архиве по умолчанию представлена погода в Ланьюе за последнюю неделю. Архивные данные за месяц целиком и за предыдущие месяцы, начиная с января 2011 года, Вы можете получить, выбрав интересующий диапазон дат из раскрывающегося списка и нажав кнопку "Ввод!".


*Определитесь, кто Вы:
робот инопланетянин человек

Внимание! Время в таблицах - всемирное. Для получения местного времени необходимо прибавить поправку, которая равна 8 ч.

Смотрите также архив погоды в соседних городах и на ближайших метеорологических станциях:

Погода в Хенгчуне (Тайвань, Китай) (83 км)
Погода в Тайдонге (Тайвань, Китай) (90 км)
Погода в Итбаяте (Филиппины) (140 км)
Погода в Тайнане (Тайвань, Китай) (175 км)
Погода на Баско Радар (Филиппины) (183 км)
Погода в Тайчжуне (Тайвань, Китай) (252 км)
Погода в Калаяне (Филиппины) (307 км)
Погода на Йонагуни (Япония) (310 км)
Погода в Тайбэе (Тайвань, Китай) (334 км)
Погода на Ириомоте (Япония) (350 км)

Пояснения к столбцам:

Ветер - указаны скорость ветра в м/с - средняя за 10 мин, порывы в срок и между сроками (в фигурных скобках) и направление, откуда дует ветер: С - северный, СВ - северо-восточный, В - восточный, ЮВ - юго-восточный, Ю - южный, ЮЗ - юго-западный, З - западный, СЗ - северо-западный.
Видимость - горизонтальная дальность видимости в метрах или километрах. При видимости от 1 до 10 км при отсутствии осадков обычно наблюдается дымка, при ухудшении видимости до 1 км и менее - туман. В сухую погоду видимость может ухудшаться дымом, пылью или мглою.
Явления - указаны атмосферные явления, наблюдавшиеся в срок или в последний час перед сроком; фигурными скобками обозначены явления, наблюдавшиеся между сроками (за 1-3 часа до срока); квадратными скобками обозначены град или гололедные отложения с указанием их диаметра в мм.
Облачность - указаны через наклонную черту общая и нижняя облачность в баллах и высота нижней границы облаков в метрах; квадратными скобками обозначены формы облаков: Ci - перистые, Cs - перисто-слоистые, Cc - перисто-кучевые, Ac - высококучевые, As - высокослоистые, Sc - слоисто-кучевые, Ns - слоисто-дождевые, Cu - кучевые, Cb - кучево-дождевые. Подробнее классификацию облаков см. в Атласе облаков (PDF).
T - Температура воздуха - температура, измеренная на высоте 2 м над землей.
Td - Температура точки росы - температура, при понижении до которой содержащийся в воздухе водяной пар достигнет насыщения.
f - Относительная влажность воздуха - влажноcть воздуха, измеренная на высоте 2 м над землей.
Te - Эффективная температура - температура, которую ощущает одетый по сезону человек в тени. Характеристика душности погоды. При расчете учитывается влияние влажности воздуха и скорости ветра на теплоощущения человека.
Tes - Эффективная температура на солнце - температура, которую ощущает человек, с поправкой на солнечный нагрев. Характеристика знойности погоды. Зависит от высоты солнца над горизонтом, облачности и скорости ветра. Ночью, в пасмурную погоду, а также при ветре 12 м/с и более поправка равна нулю.
P - Атмосферное давление - приведенное к уровню моря атмосферное давление.
Po - Атмосферное давление - измеренное на уровне метеостанции атмосферное давление.
Tmin - Минимальная температура - минимум температуры воздуха на высоте 2 м над землей.
Tmax - Максимальная температура - максимум температуры воздуха на высоте 2 м над землей.
R - Количество осадков - Количество выпавших осадков за период времени, мм. При наведении курсора мыши на число - период времени, за который выпало указанное количество осадков.
R24 - Количество осадков - Количество выпавших осадков за 24 часа, мм.
S - Снежный покров - Высота снежного покрова, см. При наведении курсора мыши на число - состояние снежного покрова и степень покрытия местности в баллах.